UFO 8 (USA 138)

Last updated on Jan. 26, 2020, 4:40 a.m. UTC

1 25258U 98016A   20025.32559812 -.00000033  00000-0  00000-0 0  9997
2 25258   8.5204  33.3751 0004183 287.4240  92.1353  1.00269163 80445
UTC
Height (km)
Latitude
Longitude
Inclination
Orbital Period
UTC large
Height (km)
Speed (km/s)
/
Latitude / Longitude
Inclination (degrees)
Orbital Period (minutes)
Azimuth
Elevation
Range (km)
Doppler Factor
iOS Compass Heading
iOS Angle

Next 30 passes for location: Hong Kong

Rise time Rise Azimuth (degrees) Set time Set Azimuth (degrees) Duration Max altitude (degrees)

No matching passes for this satellites